Location: Boiro
(42.6475°N, 8.8834°W)
Time: 08:08:18
(UTC+01:00)

Explorer 11/Cluster Stage 4 - Pass Details

Date: 07 December 2021
Orbit: 467 x 1255 km, 28.8° (Epoch: 19 January)

Event Time Altitude Azimuth Distance (km) Brightness Sun altitude
Rises 01:56:25 0° 214° (SW) 3,051 - -69.0°
Reaches altitude 10° 01:59:48 10° 189° (S) 2,304 - -68.8°
Maximum altitude 02:02:37 14° 158° (SSE) 2,165 - -68.6°
Drops below altitude 10° 02:05:41 10° 128° (SE) 2,595 - -68.4°
Sets 02:09:56 0° 106° (ESE) 3,736 - -68.1°
